Location: *
(28.3744°N, 81.5492°W)
Time: 04:16:46
(UTC+00:00)

CZ-4 R/B - Pass Details

Date: 15 June 2025
Orbit: 499 x 549 km, 97.6° (Epoch: 11 July)

Event Time Altitude Azimuth Distance (km) Brightness Sun altitude
Exits shadow 02:11:23 - 212° (SSW) 2,211 4.3 -20.1°
Reaches altitude 10° 02:12:55 10° 226° (SW) 1,763 3.9 -20.4°
Maximum altitude 02:15:13 15° 264° (W) 1,446 3.9 -20.7°
Drops below altitude 10° 02:17:31 10° 301° (WNW) 1,751 5.0 -21.1°
Sets 02:20:19 0° 325° (NW) 2,631 6.2 -21.5°
